shoulder
new_line
new_line
first
second
third
Al di la della Luna; Beyond the Moon; Astrophotography; Astrofotografia; Danilo Pivato
 
 
         
         
2006

Orbital Elements

Epoch 2006 May 25.0 TT = JDT 2453880.5
T 2006 June 7.92466 TT                                                                MPC
q   0.9390718            (2000.0)                                    P               Q
n   0.18394396     Peri.  198.80779          -0.02873648     +0.98221260
a   3.0620506      Node    69.88766          -0.88989677     +0.05940885
e   0.6933193      Incl.     11.39726           -0.45525592     -0.17812634
P   5.36  
Return in the future: 2022                
 
         
         
2006.05.12
2006.05.15
2006.05.17
2006.05.20
         
         
       
         
         
         
         
 
         
         
         

 

2006

 

Orbital Elements

Epoch 2006 May 25.0 TT = JDT 2453880.5
T 2006 June 6.95722 TT                                                             MPC
q   0.9391224            (2000.0)                       P                         Q
n   0.18403396     Peri.  198.81074     -0.02861081     +0.98222001
a   3.0610522      Node    69.89188     -0.88989958     +0.05950950
e   0.6932028      Incl.   11.39572     -0.45525834     -0.17805186
P   5.36
Return in the future: 2022 
 
         
         
       
         
2006.05.01
Video of the 2006.05.08 [22,2MB]
2006.05.08 single shot
2006.05.08
2006.05.12
         
   
2006.05.15
2006.05.17
2006.05.20
   
         
         
         
         
         
 

 

       
 
Since: 01/01/2004
 
       
 
Since: 01/11/2010